Philadelphia, PA

12:42 AM EST on January 24, 2017 (GMT -0500)
Northeast Philadelphia

Weather History for KPNE - January, 2012

Change the Weather History Date:

Tuesday, January 31, 2012

  Actual Average Record
Temperature  
Mean Temperature 47 °F -  
Max Temperature 60 °F 38 °F 62 °F (2013)
Min Temperature 34 °F 24 °F 12 °F (2004)
Degree Days  
Heating Degree Days 18    
Moisture  
Dew Point 27 °F    
Average Humidity 45    
Maximum Humidity 72    
Minimum Humidity 29    
Precipitation  
Precipitation 0.00 in - - ()
Sea Level Pressure  
Sea Level Pressure 30.15 in    
Wind  
Wind Speed 5 mph (SW)    
Max Wind Speed 14 mph    
Max Gust Speed 21 mph    
Visibility 10 miles    
Events      
Averages and records for this station are not official NWS values.
T = Trace of Precipitation, MM = Missing Value Source: NWS Daily Summary

Daily Weather History Graph

Daily Weather History Graph

Search for Another Location

Airport or City:

Trip Planner

Search our weather history database for the weather conditions in past years. The results will help you decide how hot, cold, wet, or windy it might be!

Date:

Astronomy

Jan. 31, 2012 Rise Set
Actual Time 7:10 AM EST 5:17 PM EST
Civil Twilight 6:41 AM EST 5:46 PM EST
Nautical Twilight 6:08 AM EST 6:18 PM EST
Astronomical Twilight 5:36 AM EST 6:50 PM EST
Moon 11:06 AM EST (1/31) 12:55 AM EST (1/31)
Length of Visible Light 11h 04m
Length of Day
10h 07m
First Quarter, 55% of the Moon is Illuminated
Jan 31
First Quarter
Feb 7
Full
Feb 14
Last Quarter
Feb 21
New
Feb 29
First Quarter

Hourly Weather History & Observations

Time (EST) Temp. Windchill Dew Point Humidity Pressure Visibility Wind Dir Wind Speed Gust Speed Precip Events Conditions
12:54 AM 34.0 °F - 15.1 °F 46% 30.25 in 10.0 mi Calm Calm - N/A   Clear
1:54 AM 35.1 °F - 17.1 °F 48% 30.24 in 10.0 mi Calm Calm - N/A   Partly Cloudy
2:54 AM 37.0 °F - 19.9 °F 50% 30.22 in 10.0 mi Calm Calm - N/A   Clear
3:54 AM 37.0 °F 34.5 °F 21.9 °F 54% 30.21 in 10.0 mi SSW 3.5 mph - N/A   Scattered Clouds
4:54 AM 37.9 °F 33.5 °F 26.1 °F 62% 30.20 in 10.0 mi SW 5.8 mph - N/A   Clear
5:54 AM 37.0 °F 32.4 °F 27.0 °F 67% 30.20 in 10.0 mi WSW 5.8 mph - N/A   Clear
6:54 AM 35.1 °F 32.2 °F 27.0 °F 72% 30.20 in 10.0 mi SW 3.5 mph - N/A   Clear
7:54 AM 37.9 °F 32.7 °F 28.0 °F 68% 30.21 in 10.0 mi WSW 6.9 mph - N/A   Clear
8:54 AM 44.1 °F 39.0 °F 28.0 °F 53% 30.21 in 10.0 mi WSW 9.2 mph - N/A   Clear
9:54 AM 46.4 °F 41.9 °F 28.4 °F 50% 30.21 in 10.0 mi SW 9.2 mph - N/A   Clear
10:54 AM 48.0 °F - 28.0 °F 46% 30.20 in 10.0 mi SW 8.1 mph - N/A   Clear
11:54 AM 53.1 °F - 27.0 °F 37% 30.17 in 10.0 mi WSW 12.7 mph 19.6 mph N/A   Clear
12:54 PM 55.9 °F - 28.0 °F 34% 30.14 in 10.0 mi SSW 9.2 mph 18.4 mph N/A   Clear
1:54 PM 57.9 °F - 27.0 °F 31% 30.11 in 10.0 mi SW 13.8 mph 19.6 mph N/A   Clear
2:54 PM 60.1 °F - 28.0 °F 30% 30.09 in 10.0 mi SW 8.1 mph - N/A   Clear
3:54 PM 60.1 °F - 28.0 °F 30% 30.08 in 10.0 mi SW 11.5 mph 20.7 mph N/A   Clear
4:54 PM 59.0 °F - 27.0 °F 29% 30.08 in 10.0 mi SW 10.4 mph - N/A   Clear
5:54 PM 57.0 °F - 28.0 °F 33% 30.09 in 10.0 mi SW 5.8 mph - N/A   Clear
6:54 PM 57.2 °F - 28.4 °F 33% 30.10 in 10.0 mi SW 9.2 mph - N/A   Clear
7:54 PM 55.0 °F - 30.0 °F 38% 30.10 in 10.0 mi SW 11.5 mph - N/A   Clear
8:54 PM 54.0 °F - 30.0 °F 40% 30.09 in 10.0 mi SW 9.2 mph - N/A   Clear
9:54 PM 52.0 °F - 30.0 °F 43% 30.08 in 10.0 mi SW 5.8 mph - N/A   Clear
10:54 PM 50.0 °F - 30.9 °F 48% 30.08 in 10.0 mi SW 5.8 mph - N/A   Clear
11:54 PM 50.0 °F - 30.2 °F 47% 30.06 in 10.0 mi SW 6.9 mph - N/A   Partly Cloudy